Regional Weather Roundup
Issued by NWS

Home | Current Version | Previous Version | Graphics & Text | Print | Product List | Glossary On
Versions: 1 2 3 4 5 6 7 8 9 10 11 12 13 14 15 16 17 18 19 20 21 22 23 24 25 26 27 28 29 30 31 32 33 34 35 36 37 38 39 40 41 42 43 44 45 46 47 48 49 50
000
ASUS43 KMKX 272211
RWRWI

WISCONSIN REGIONAL WEATHER ROUNDUP
NATIONAL WEATHER SERVICE MILWAUKEE/SULLIVAN WI
500 PM CDT SUN MAY 27 2018

NOTE: "FAIR" INDICATES FEW OR NO CLOUDS BELOW 12,000 FEET WITH NO
SIGNIFICANT WEATHER AND/OR OBSTRUCTIONS TO VISIBILITY.

WIZ001-002-006>008-014>016-023>028-272300-
NORTHWEST WISCONSIN

CITY           SKY/WX    TMP DP  RH WIND       PRES   REMARKS
SUPERIOR ARPT  FAIR      78  60  53 E9        29.79F
ASHLAND        FAIR      81  63  54 NE8       29.82R HX  82
HAYWARD        LGT RAIN  82  65  56 S6        29.83R HX  84
SIREN          FAIR      83  57  41 SW6       29.84F HX  83
CUMBERLAND     FAIR      81  57  44 SW6       29.85F HX  81
RICE LAKE      FAIR      88  56  33 SW5       29.86S HX  86
CHETEK         FAIR      88  61  39 SW3       29.84S HX  88
LADYSMITH      FAIR      86  58  37 S6        29.86R HX  85
EAU CLAIRE     FAIR      92  54  27 S8        29.82S HX  90
MENOMONIE      FAIR      89  57  34 S6        29.84S HX  87
NEW RICHMOND   FAIR      86  58  37 CALM      29.84F HX  85
OSCEOLA        FAIR      89  56  32 S10       29.86F HX  87
$$

WIZ003>005-009-010-017-018-272300-
NORTH CENTRAL WISCONSIN

CITY           SKY/WX    TMP DP  RH WIND       PRES   REMARKS
MANITOWISH WTR FAIR      86  55  34 E3        29.85R HX  84
ARBOR VITAE    FAIR      85  53  32 CALM      29.85R HX  83
WOODRUFF       FAIR      85  53  32 CALM      29.85R HX  83
RHINELANDER    FAIR      90  53  28 CALM      29.86F HX  87
EAGLE RIVER    FAIR      84  50  30 CALM      29.86S HX  82
LAND O LAKES   FAIR      82  48  30 W3        29.88F HX  81
PHILLIPS       FAIR      87  56  34 S7        29.83F HX  86
TOMAHAWK       FAIR      88  48  25 CALM      29.85F HX  85
MEDFORD        FAIR      84  65  52 CALM      29.85R HX  85
MERRILL        FAIR      89  53  29 CALM      29.84F HX  87
$$

WIZ029-030-035-036-043>047-272300-
CENTRAL WISCONSIN

CITY           SKY/WX    TMP DP  RH WIND       PRES   REMARKS
WAUSAU         FAIR      92  51  24 CALM      29.81F HX  89
MOSINEE        PTSUNNY   90  54  29 VRB5      29.85F HX  87
MARSHFIELD     FAIR      90  55  30 CALM      29.83F HX  88
STEVENS POINT  FAIR      90  51  26 NW3       29.86F HX  87
WAUPACA        FAIR      96  46  18 NW10      29.85F HX  92
WAUTOMA        FAIR      92  52  25 NW8       29.86S HX  89
WISC RAPIDS    FAIR      95  65  37 NW6       29.85F HX  97
CAMP DOUGLAS   FAIR      92  58  31 E6        29.84F HX  91
$$

WIZ011>013-019>022-031-037>040-048>050-272300-
NORTHEAST WISCONSIN

CITY           SKY/WX    TMP DP  RH WIND       PRES   REMARKS
ANTIGO         FAIR      88  54  31 W5        29.86F HX  86
SHAWANO        FAIR      91  49  22 NW7       29.84F HX  88
OCONTO         FAIR      85  64  49 SE7       29.83F HX  86
STURGEON BAY   FAIR      79  60  52 E10       29.86F HX  80
GREEN BAY      FAIR      96  50  20 NW13      29.83F HX  93
MANITOWOC      NOT AVBL
APPLETON       PTSUNNY   90  46  22 NW12G21   29.85S HX  86
CLINTONVILLE   FAIR      92  44  19 NW7       29.84F HX  88
OSHKOSH        FAIR      92  56  29 NW10      29.85S HX  90
$$

WIZ032>034-041-042-053>061-272300-
SOUTHWEST WISCONSIN

CITY           SKY/WX    TMP DP  RH WIND       PRES   REMARKS
LA CROSSE      FAIR      95  58  28 NE3       29.82F HX  94
SPARTA         FAIR      91  53  27 CALM      29.85F HX  89
VIROQUA        FAIR      92  50  24 NE5       29.88F HX  89
BOSCOBEL       FAIR      94  63  35 N6        29.85R HX  95
PRAIRIE DU CHI FAIR      93  57  29 E5        29.84R HX  91
PLATTEVILLE    FAIR      92  67  42 N6        29.87R HX  95
$$

WIZ056-057-062-063-064-067-068-272300-
SOUTH CENTRAL WISCONSIN

CITY           SKY/WX    TMP DP  RH WIND       PRES   REMARKS
REEDSBURG      FAIR      93  57  29 NW9       29.86S HX  92
BARABOO/DELLS  FAIR      95  48  20 N7        29.87R HX  91
LONE ROCK      FAIR      96  60  30 N9        29.83F HX  96
MINERAL POINT  FAIR      95  52  23 CALM      29.87S HX  92
MADISON        PTSUNNY   93  66  40 N8        29.84S HX  96
MIDDLETON      FAIR      96  54  24 N10       29.85F HX  93
WATERTOWN      FAIR      85  73  68 N3        29.86R HX  91
MONROE         FAIR      95  57  28 NW7       29.86R HX  94
JANESVILLE     MOSUNNY   95  57  28 W3        29.84S HX  94
$$

WIZ051-052-058>065-066-070>072-272300-
SOUTHEAST WISCONSIN

CITY           SKY/WX    TMP DP  RH WIND       PRES   REMARKS
MILWAUKEE      PTSUNNY   83  66  56 CALM      29.85S HX  85
WAUKESHA       MOSUNNY   84  61  45 N10       29.88R HX  84
MILWAUKEE/TIMM CLOUDY    79  63  57 NW14      29.88R HX  80
RACINE         FAIR      82  65  56 SE8       29.87S HX  84
BURLINGTON     FAIR      76  39  26 CALM      29.85S
KENOSHA        FAIR      86  66  51 SE8       29.85S HX  88
FOND DU LAC    FAIR      92  55  28 N17G24    29.85S HX  90
SHEBOYGAN      FAIR      85  66  53 S7        29.86S HX  87
WEST BEND      FAIR      77  64  65 SE3       29.88S
JUNEAU         FAIR      92  58  31 N9        29.87R HX  91
$$

LSZ147-162-272300-
LAKE SUPERIOR

STATION/POSITION TIME  TEMP    WIND        PRES    WAVE
                       AIR SEA DIR/SP/G            HT/PER
                 (UTC) (F)     (DEG/KT/KT) (MB)    (FT/S)
W MID LAKE BUOY  2150   40 37   50/  6/  6 1010.8R   0
DEVILS ISLAND    2200           60/  7/  8 1010.8R
SAXON HARBOR     2200   73     300/  3/ 11 1009.5
$$

LMZ867-665-643>646-272300-
LAKE MICHIGAN

STATION/POSITION TIME  TEMP    WIND        PRES    WAVE
                       AIR SEA DIR/SP/G            HT/PER
                 (UTC) (F)     (DEG/KT/KT) (MB)    (FT/S)
N MID LAKE BUOY  2150   43 38  190/  4/  6 1011.3S   1
NORTHPORT PIER   2140   69     150/  4/  5 1010.8S
KEWAUNEE LAKESHO 2148   64     180/  8/  9 1011.3R
SHEBOYGAN LAKESH 2200   52      40/  6/  7 1011.2R
PORT WASHINGTON  2140   76     240/  2/  4 1012.2F
ATWATER BUOY     2107   63 55   80/  4/  6 1011.7    1/ 2
MILWAUKEE LAKESH 2150   70      50/  7/ 11   N/A
S MID LAKE BUOY  2150   62 47  150/ 10/ 10 1011.2F   0
KENOSHA   LAKESH 2200   75                 1010.5
$$

TC  - TEMPERATURE IN CELSIUS
VSB - VISIBILITY IN STATUTE MILES
WCI - WIND CHILL INDEX
HX  - HEAT INDEX




USA.gov is the U.S. government's official web portal to all federal, state and local government web resources and services.